Weather History for Prescott, AZ

Change the Weather History Date:

Wednesday, August 20, 2014

  Actual Average Record
Temperature  
Mean Temperature 67 °F 73 °F  
Max Temperature 80 °F 86 °F 95 °F (1949)
Min Temperature 54 °F 60 °F 50 °F (1979)
Degree Days  
Heating Degree Days 0    
Month to date heating degree days 2  
Since 1 July heating degree days 2  
Cooling Degree Days 2    
Month to date cooling degree days 163  
Year to date cooling degree days 843  
Growing Degree Days 17 (Base 50)    
Moisture  
Dew Point 52 °F    
Average Humidity 61    
Maximum Humidity 93    
Minimum Humidity 39    
Precipitation  
Precipitation 0.01 in 0.09 in 1.40 in (1957)
Month to date precipitation 3.63 1.78  
Year to date precipitation 6.43 8.82  
Sea Level Pressure  
Sea Level Pressure 29.94 in    
Wind  
Wind Speed 4 mph (South)    
Max Wind Speed 16 mph    
Max Gust Speed 22 mph    
Visibility 10 miles    
Events Thunderstorm    
T = Trace of Precipitation, MM = Missing Value Source: NWS Daily Summary

Daily Weather History Graph

Daily Weather History Graph

Search for Another Location

Airport:

Trip Planner

Search our weather history database for the weather conditions in past years. The results will help you decide how hot, cold, wet, or windy it might be!

Date:

Astronomy

Aug. 20, 2014 Rise Set
Actual Time 5:54 AM MST 7:11 PM MST
Civil Twilight 5:27 AM MST 7:37 PM MST
Nautical Twilight 4:56 AM MST 8:09 PM MST
Astronomical Twilight 4:23 AM MST 8:41 PM MST
Moon 1:41 AM MST (8/20) 3:55 PM MST (8/20)
Length of Visible Light 14h 10m
Length of Day
13h 17m
Waning Crescent, 20% of the Moon is Illuminated
Aug 20
Waning Crescent
Aug 25
New
Sep 2
First Quarter
Sep 8
Full
Sep 15
Last Quarter

Hourly Weather History & Observations

Time (MST) Temp. Dew Point Humidity Pressure Visibility Wind Dir Wind Speed Gust Speed Precip Events Conditions
12:53 AM 55.0 °F 52.0 °F 89% 29.91 in 10.0 mi Calm Calm - N/A   Clear
1:53 AM 55.0 °F 52.0 °F 89% 29.92 in 10.0 mi Calm Calm - N/A   Clear
2:53 AM 55.0 °F 52.0 °F 89% 29.94 in 10.0 mi Calm Calm - N/A   Clear
3:53 AM 54.0 °F 51.1 °F 90% 29.94 in 10.0 mi Calm Calm - N/A   Clear
4:53 AM 55.0 °F 51.1 °F 86% 29.93 in 10.0 mi Calm Calm - N/A   Clear
5:53 AM 54.0 °F 51.1 °F 90% 29.95 in 10.0 mi South 3.5 mph - N/A   Clear
6:53 AM 57.0 °F 53.1 °F 87% 29.98 in 10.0 mi Calm Calm - N/A   Clear
7:53 AM 63.0 °F 55.9 °F 78% 29.97 in 10.0 mi SSE 3.5 mph - N/A   Clear
8:53 AM 69.1 °F 55.0 °F 61% 29.97 in 10.0 mi SSE 3.5 mph - N/A   Clear
9:53 AM 72.0 °F 55.0 °F 55% 29.96 in 10.0 mi Variable 3.5 mph - N/A   Partly Cloudy
10:53 AM 75.9 °F 55.0 °F 48% 29.96 in 10.0 mi Variable 3.5 mph - N/A   Scattered Clouds
11:53 AM 75.0 °F 53.1 °F 46% 29.95 in 10.0 mi Calm Calm - N/A   Scattered Clouds
12:53 PM 75.9 °F 52.0 °F 43% 29.94 in 10.0 mi Calm Calm - N/A   Mostly Cloudy
1:53 PM 75.0 °F 53.1 °F 46% 29.94 in 10.0 mi SE 9.2 mph - N/A   Overcast
2:53 PM 77.0 °F 50.0 °F 39% 29.91 in 10.0 mi West 15.0 mph 19.6 mph 0.01 in   Mostly Cloudy
3:36 PM 80.1 °F 48.0 °F 32% 30.10 in 10.0 mi NNW 9.2 mph - N/A Thunderstorm Thunderstorm
3:53 PM 77.0 °F 50.0 °F 39% 29.90 in 10.0 mi Variable 6.9 mph - N/A Thunderstorm Thunderstorm
4:53 PM 75.0 °F 48.0 °F 38% 29.90 in 10.0 mi Variable 5.8 mph - N/A   Mostly Cloudy
5:53 PM 73.0 °F 52.0 °F 48% 29.90 in 10.0 mi SE 4.6 mph - N/A   Scattered Clouds
6:53 PM 73.0 °F 52.0 °F 48% 29.89 in 10.0 mi South 3.5 mph - N/A   Partly Cloudy
7:53 PM 69.1 °F 53.1 °F 57% 29.89 in 10.0 mi SW 3.5 mph - N/A   Clear
8:53 PM 68.0 °F 51.1 °F 55% 29.92 in 10.0 mi South 6.9 mph - N/A   Clear
9:53 PM 66.9 °F 52.0 °F 59% 29.92 in 10.0 mi South 6.9 mph - N/A   Clear
10:53 PM 66.0 °F 51.1 °F 59% 29.92 in 10.0 mi South 6.9 mph - N/A   Clear
11:53 PM 68.0 °F 51.1 °F 55% 29.91 in 10.0 mi SW 9.2 mph - N/A   Clear